This is the latest recevied weather packets stored in our database for station/object KG7FOQ-13. If no packets are shown the sender has not sent any weather packets the latest 10 day(s).
| Time | Temp. | Humidity | Pressure | Rain* | Wind** | Luminosity | Snow |
|---|---|---|---|---|---|---|---|
| 1777567984 | 11.67° C | 43% | 1021.4 hPa | 0 mm | - | - | - |
| 1777567683 | 11.67° C | 41% | 1021.4 hPa | 0 mm | - | - | - |
| 1777567425 | 11.67° C | 42% | 1021.5 hPa | 0 mm | - | - | - |
| 1777567382 | 11.67° C | 42% | 1021.5 hPa | 0 mm | - | - | - |
| 1777567081 | 11.67° C | 42% | 1021.5 hPa | 0 mm | - | - | - |
| 1777566178 | 12.22° C | 40% | 1021.5 hPa | 0 mm | - | - | - |
| 1777565878 | 11.67° C | 41% | 1021.5 hPa | 0 mm | - | - | - |
| 1777565612 | 11.67° C | 43% | 1021.5 hPa | 0 mm | - | - | - |
| 1777565577 | 11.67° C | 43% | 1021.5 hPa | 0 mm | - | - | - |
| 1777565277 | 11.67° C | 41% | 1021.5 hPa | 0 mm | - | - | - |
| 1777564976 | 11.67° C | 40% | 1021.5 hPa | 0 mm | - | - | - |
| 1777564676 | 11.67° C | 41% | 1021.6 hPa | 0 mm | - | - | - |
| 1777564375 | 11.11° C | 43% | 1021.6 hPa | 0 mm | - | - | - |
| 1777564075 | 11.11° C | 42% | 1021.6 hPa | 0 mm | - | - | - |
| 1777563774 | 11.11° C | 45% | 1021.7 hPa | 0 mm | - | - | - |
| 1777563474 | 11.11° C | 45% | 1021.6 hPa | 0 mm | - | - | - |
| 1777563173 | 11.11° C | 46% | 1021.6 hPa | 0 mm | - | - | - |
| 1777562873 | 11.11° C | 47% | 1021.7 hPa | 0 mm | - | - | - |
| 1777562572 | 10.56° C | 49% | 1021.8 hPa | 0 mm | - | - | - |
| 1777562272 | 10.56° C | 49% | 1021.8 hPa | 0 mm | - | - | - |
| 1777561970 | 10.56° C | 53% | 1021.9 hPa | 0 mm | - | - | - |
| 1777561670 | 10° C | 52% | 1021.8 hPa | 0 mm | - | - | - |
| 1777561369 | 9.44° C | 51% | 1021.9 hPa | 0 mm | - | - | - |
| 1777561069 | 10° C | 52% | 1021.8 hPa | 0 mm | - | - | - |
| 1777560768 | 10° C | 52% | 1021.8 hPa | 0 mm | - | - | - |
* Rain latest hour (hover to see other rain measurements)
** Current wind speed in m/s (hover to see current wind gust speed)